Regional Weather Roundup
Issued by NWS New Orleans/Baton Rouge, LA

Home | Current Version | Previous Version | Graphics & Text | Print | Product List | Glossary On
Versions: 1 2 3 4 5 6 7 8 9 10 11 12 13 14 15 16 17 18 19 20 21 22 23 24 25 26 27 28 29 30 31 32 33 34 35 36 37 38 39 40 41 42 43 44 45 46 47 48 49 50
394
ASUS44 KLIX 020811
RWRLIX
NEW ORLEANS REGIONAL WEATHER ROUNDUP
NATIONAL WEATHER SERVICE NEW ORLEANS LA
300 AM CDT THU APR 02 2015

NOTE: "FAIR" INDICATES FEW OR NO CLOUDS BELOW 12,000 FEET WITH NO
      SIGNIFICANT WEATHER AND/OR OBSTRUCTIONS TO VISIBILITY.
      SKY/WX - SKY CONDITION AND SIGNIFICANT WEATHER.
      TMP - AIR TEMPERATURE.     DP    - DEWPOINT TEMPERATURE.
      RH  - RELATIVE HUMIDITY.   PRES  - PRESSURE.
      HI  - HEAT INDEX.          WCI   - WIND CHILL INDEX.

*  THESE STATIONS ARE NOT NWS OR FAA STATIONS AND ARE NOT UNDER
   NWS QUALITY CONTROL.

LAZ038-040-048-061>063-065>067-069-020900-
SOUTHEAST LOUISIANA

CITY           SKY/WX    TMP DP  RH WIND       PRES   REMARKS
N.O. AUDUBON   NOT AVBL
N.O. INTL ARPT CLOUDY    70  67  90 S3        30.04F
N.O. LAKEFRONT CLOUDY    73  67  81 SE5       30.05F
SLIDELL        CLOUDY    69  68  96 CALM      30.04F
BATON ROUGE    CLOUDY    71  66  84 S9        30.01F
BOOTHVILLE     MOCLDY    73  70  90 SE7       30.05F
BELLE CHASSE   CLOUDY    66  64  93 CALM      30.04F FOG
BOGALUSA*        N/A     70  66  87 S6        30.05F
GALLIANO*      PTSUNNY   62  61  97 CALM      30.04F
NEW ROADS*       N/A     70  65  85 S6        30.01F
GONZALES*        N/A     69  69 100 CALM      30.02F
HAMMOND*       CLOUDY    68  64  88 CALM      30.05S
HOUMA*         MOCLDY    70  68  94 CALM      30.04S
PORT FOURCHON* SUNNY     73  70  88 S5        30.07F FOG

$$

MSZ070-080>082-020900-
SOUTHERN MISSISSIPPI

CITY           SKY/WX    TMP DP  RH WIND       PRES   REMARKS
MCCOMB         CLOUDY    66  64  93 S3        30.04S
GULFPORT       CLOUDY    72  69  90 S7        30.04F
BILOXI         CLOUDY    72  72  99 S10       30.05S
PASCAGOULA     CLOUDY    72  68  87 S7        30.06S

$$

COASTAL OBSERVATIONS
LAKE AND NEARSHORE STATIONS

STATION/POSITION TIME  TEMP    WIND        PRES    WAVE
                       AIR SEA DIR/SP/G            HT/PER
                 (UTC) (F)     (DEG/KT/KT) (MB)    (FT/S)
PASCAGOULA       0700   72     180/ 11/ 14 1017.4
WAVELAND YACHT   0700   72 72  190/  7/  9 1017.6
GRAND ISLE       0700   72 72  150/  5/  7 1017.3
SOUTHWEST PASS   0700   69 56  150/  5/  8 1018.1
NEW CANAL        0700   72      CALM  /  1 1017.9
SHELL BEACH      0700   71 73  150/  5/  7 1017.5

OFFSHORE STATIONS

STATION/POSITION TIME  TEMP    WIND        PRES    WAVE
                       AIR SEA DIR/SP/G            HT/PER
                 (UTC) (F)     (DEG/KT/KT) (MB)    (FT/S)
64 S DAUPHIN ISL 0750   73 72  170/ 12/ 14 1018.1    3/ 5

$$




USA.gov is the U.S. government's official web portal to all federal, state and local government web resources and services.